Change the Weather History Date:

Monday, September 2, 2013

  Actual Average Record
Temperature  
Mean Temperature 70 °F -  
Max Temperature 78 °F 78 °F 100 °F (1953)
Min Temperature 64 °F 61 °F 45 °F (1958)
Cooling Degree Days 6    
Growing Degree Days 20 (Base 50)    
Moisture  
Dew Point 61 °F    
Average Humidity 73    
Maximum Humidity 93    
Minimum Humidity 48    
Precipitation  
Precipitation 0.06 in - - ()
Sea Level Pressure  
Sea Level Pressure 29.80 in    
Wind  
Wind Speed 7 mph (NW)    
Max Wind Speed 14 mph    
Max Gust Speed 22 mph    
Visibility 9 miles    
Events Rain , Thunderstorm    
Averages and records for this station are not official NWS values.
T = Trace of Precipitation, MM = Missing Value Source: NWS Daily Summary

Daily Weather History Graph

Daily Weather History Graph

Search for Another Location

Airport or City:

Trip Planner

Search our weather history database for the weather conditions in past years. The results will help you decide how hot, cold, wet, or windy it might be!

Date:

Astronomy

Sep. 02, 2013 Rise Set
Actual Time 6:58 AM EDT 8:03 PM EDT
Civil Twilight 6:29 AM EDT 8:32 PM EDT
Nautical Twilight 5:55 AM EDT 9:07 PM EDT
Astronomical Twilight 5:18 AM EDT 9:43 PM EDT
Moon 4:12 AM EDT (9/2) 6:18 PM EDT (9/2)
Length of Visible Light 14h 03m
Length of Day
13h 05m
Waning Crescent, 8% of the Moon is Illuminated
Sep 2
Waning Crescent
Sep 5
New
Sep 12
First Quarter
Sep 19
Full
Sep 26
Last Quarter

Hourly Weather History & Observations

Time (EDT) Temp. Dew Point Humidity Pressure Visibility Wind Dir Wind Speed Gust Speed Precip Events Conditions
12:42 AM 73.4 °F 69.8 °F 88% 29.76 in 9.0 mi SSW 6.9 mph - N/A Thunderstorm Scattered Clouds
12:53 AM 73.0 °F 69.1 °F 87% 29.75 in 9.0 mi SSW 8.1 mph - N/A Thunderstorm Partly Cloudy
1:16 AM 73.4 °F 69.8 °F 88% 29.75 in 5.0 mi WSW 9.2 mph 17.3 mph 0.05 in Rain Heavy Rain
1:53 AM 73.0 °F 66.9 °F 81% 29.75 in 10.0 mi WSW 4.6 mph - 0.05 in   Partly Cloudy
2:53 AM 69.1 °F 66.9 °F 93% 29.73 in 7.0 mi SW 4.6 mph - N/A   Clear
3:53 AM 71.1 °F 69.1 °F 93% 29.72 in 7.0 mi West 5.8 mph - N/A   Clear
4:53 AM 71.1 °F 66.9 °F 87% 29.72 in 9.0 mi West 4.6 mph - N/A   Scattered Clouds
5:53 AM 70.0 °F 66.9 °F 90% 29.73 in 8.0 mi WNW 4.6 mph - N/A   Scattered Clouds
6:02 AM 69.8 °F 66.2 °F 88% 29.75 in 8.0 mi NW 3.5 mph - N/A   Mostly Cloudy
6:43 AM 69.8 °F 66.2 °F 88% 29.76 in 7.0 mi Calm Calm - N/A   Mostly Cloudy
6:53 AM 69.1 °F 66.9 °F 93% 29.76 in 6.0 mi WNW 3.5 mph - N/A   Mostly Cloudy
7:53 AM 70.0 °F 66.9 °F 90% 29.78 in 6.0 mi WNW 3.5 mph - N/A   Partly Cloudy
8:46 AM 71.6 °F 66.2 °F 83% 29.79 in 9.0 mi NNW 6.9 mph - 0.01 in   Mostly Cloudy
8:53 AM 71.1 °F 66.0 °F 84% 29.79 in 9.0 mi NNW 5.8 mph - 0.01 in   Mostly Cloudy
9:08 AM 71.6 °F 64.4 °F 78% 29.80 in 10.0 mi NNW 9.2 mph - N/A   Overcast
9:24 AM 69.8 °F 64.4 °F 83% 29.80 in 10.0 mi NNW 12.7 mph 17.3 mph N/A   Overcast
9:53 AM 70.0 °F 63.0 °F 78% 29.80 in 10.0 mi NW 9.2 mph - N/A   Overcast
10:53 AM 71.1 °F 61.0 °F 70% 29.82 in 10.0 mi North 5.8 mph - N/A   Mostly Cloudy
11:34 AM 71.6 °F 60.8 °F 69% 29.84 in 10.0 mi NNW 6.9 mph - N/A   Scattered Clouds
11:53 AM 72.0 °F 60.1 °F 66% 29.84 in 10.0 mi WNW 5.8 mph - N/A   Partly Cloudy
12:53 PM 73.0 °F 57.9 °F 59% 29.83 in 10.0 mi NNW 10.4 mph - N/A   Partly Cloudy
1:53 PM 75.9 °F 57.0 °F 52% 29.82 in 10.0 mi NNW 6.9 mph 17.3 mph N/A   Scattered Clouds
2:53 PM 75.9 °F 57.0 °F 52% 29.82 in 10.0 mi NW 9.2 mph - N/A   Scattered Clouds
3:53 PM 75.9 °F 57.0 °F 52% 29.81 in 10.0 mi NW 9.2 mph - N/A   Mostly Cloudy
4:53 PM 77.0 °F 55.9 °F 48% 29.81 in 10.0 mi NW 13.8 mph 20.7 mph N/A   Scattered Clouds
5:53 PM 73.0 °F 55.0 °F 53% 29.82 in 10.0 mi NW 13.8 mph 21.9 mph N/A   Mostly Cloudy
6:53 PM 71.1 °F 55.0 °F 57% 29.83 in 10.0 mi NNW 10.4 mph 18.4 mph N/A   Overcast
7:53 PM 69.1 °F 53.1 °F 57% 29.85 in 10.0 mi NW 10.4 mph - N/A   Overcast
8:53 PM 68.0 °F 51.1 °F 55% 29.87 in 10.0 mi NW 11.5 mph 17.3 mph N/A   Overcast
9:53 PM 64.9 °F 48.9 °F 56% 29.88 in 10.0 mi NNW 9.2 mph - N/A   Overcast
10:53 PM 64.0 °F 50.0 °F 60% 29.90 in 10.0 mi North 11.5 mph - N/A   Overcast
11:53 PM 64.0 °F 50.0 °F 60% 29.90 in 10.0 mi NNW 9.2 mph - N/A   Overcast